Wind_Speed
32 31 29 28 26 26 26 25 25 24 23 22 21 20 19 18 17 17 18 18 19 18 17 19 20 22 23 23 23 23 23 22 21 21 20 21 21 21 21 21 22 23 23
36 33 31 29 28 28 27 27 27 27 26 25 23 22 21 20 20 19 19 19 19 19 20 21 22 24 24 25 25 25 25 24 23 23 22 21 22 22 21 21 22 23 23
39 36 34 32 30 30 28 28 29 30 29 28 26 25 24 23 22 21 20 20 20 20 21 22 24 25 25 26 27 27 27 26 26 25 25 24 23 22 23 22 22 23 23
39 36 34 32 31 30 30 31 32 33 33 31 32 29 27 25 23 21 21 22 22 22 22 23 24 25 26 26 27 27 28 28 28 28 27 26 24 23 23 23 23 23 23
37 36 34 33 32 32 32 34 36 36 35 36 34 31 28 25 23 22 22 22 22 23 24 24 24 25 25 26 27 27 28 28 30 30 30 29 27 24 24 24 24 24 23
34 34 35 34 34 34 34 35 37 38 38 40 36 32 28 24 21 21 21 22 22 23 24 24 24 24 25 26 27 27 27 28 29 31 32 32 29 26 25 25 24 24 23
32 33 35 35 36 36 36 37 39 40 41 41 35 30 24 21 19 20 20 21 22 23 24 24 24 24 24 25 26 26 27 27 28 29 31 32 30 28 27 26 25 25 24
31 33 34 35 36 36 37 39 41 39 39 38 30 24 20 18 18 18 20 21 22 23 23 24 23 23 24 25 26 26 25 25 26 27 29 30 28 26 26 26 25 26 25
29 31 32 34 36 35 36 37 38 37 35 28 21 18 17 17 17 18 19 21 22 23 23 23 24 24 24 25 25 25 24 24 24 25 26 27 26 25 23 26 26 26 27
26 28 30 31 31 33 33 32 32 30 25 19 14 13 15 16 18 19 20 22 23 24 24 25 25 25 25 25 25 24 23 23 23 23 23 23 23 22 22 23 25 26 27
22 24 26 28 28 27 27 24 20 18 14 12 12 12 14 17 19 20 21 23 24 25 26 26 26 26 26 25 24 23 22 22 21 20 20 20 20 20 20 21 22 23 25
16 15 16 17 16 15 15 13 9 8 8 9 10 12 15 18 20 22 23 24 25 26 27 27 27 26 25 24 23 22 22 21 21 20 20 19 18 18 18 20 21 22 24
6 5 4 4 5 7 7 7 7 7 7 10 13 15 17 19 20 22 23 24 24 25 25 25 24 24 23 23 22 22 22 21 21 20 19 19 19 19 19 18 20 20 22
4 3 3 5 6 7 7 7 7 8 10 12 15 18 19 20 20 21 22 22 22 23 22 23 23 22 22 21 21 21 21 21 21 21 20 20 19 19 18 18 19 20 21
6 5 5 6 6 5 5 6 7 10 12 15 16 18 18 18 18 18 18 18 19 20 21 21 22 22 22 22 21 21 21 22 22 22 22 21 21 20 19 19 19 20 21
7 6 5 3 3 4 5 7 9 11 12 14 15 16 16 16 15 15 16 17 18 20 21 22 22 22 22 22 22 21 21 22 22 22 22 22 22 22 21 21 21 21 21
7 5 3 1 1 2 4 5 7 9 10 12 13 15 15 15 15 16 16 17 19 20 21 21 22 22 23 23 22 22 22 22 22 22 22 22 22 22 22 22 22 22 22
9 7 5 4 4 3 4 6 7 9 11 13 14 16 16 17 17 18 18 18 19 20 21 22 22 22 23 23 23 22 22 22 22 22 22 22 22 21 21 22 22 22 23
11 9 8 7 6 6 6 7 8 10 11 13 14 16 16 17 18 18 19 19 19 20 21 21 21 21 21 22 21 21 21 21 21 21 21 21 22 21 21 22 22 22 22
11 10 9 8 8 8 8 9 10 11 13 14 15 16 17 18 18 19 19 19 19 20 20 20 20 19 19 19 20 20 20 20 20 20 21 21 21 21 22 22 22 22 22
11 10 10 9 9 9 10 10 11 13 14 16 17 17 18 18 19 20 20 20 19 19 19 19 19 18 19 19 20 20 20 21 21 21 22 22 21 22 22 22 22 22 22
12 12 11 12 12 12 13 14 14 15 16 17 17 18 18 19 19 19 19 18 18 18 17 17 18 18 19 19 20 21 21 22 23 23 23 24 23 23 22 22 22 21 21
14 14 14 14 15 16 16 17 17 17 17 17 18 18 18 18 18 17 17 16 16 15 15 15 15 15 16 17 18 20 21 22 23 24 24 24 24 24 24 23 23 22 21
15 15 15 16 16 17 17 18 18 18 18 17 17 17 17 17 16 16 15 15 14 13 13 12 13 13 15 16 17 18 19 20 20 21 21 22 23 24 24 24 23 22 21
15 16 16 17 17 17 18 18 18 18 18 18 17 17 17 17 16 16 15 14 13 13 12 11 12 13 13 13 14 14 14 14 15 16 17 18 19 20 21 21 22 21 21
15 16 16 16 17 17 17 17 17 18 18 18 19 19 19 19 18 18 17 16 15 14 13 13 12 12 12 12 12 12 11 9 8 8 9 11 13 14 15 16 17 18 18
Wind_Direction
272 274 277 278 281 281 280 276 272 268 265 262 260 259 258 258 259 264 268 269 268 268 265 266 269 273 276 279 280 280 280 278 279 278 278 279 276 271 263 258 252 248 245
270 271 273 274 277 276 274 270 268 265 262 259 256 254 255 257 259 261 262 263 263 262 264 267 271 273 275 276 277 278 280 278 278 279 276 274 275 271 264 256 251 248 245
266 267 269 270 270 269 267 263 261 260 258 258 254 249 249 252 255 257 259 258 260 262 265 268 271 272 273 273 273 275 275 277 278 280 277 273 270 270 262 254 250 246 245
264 262 263 263 262 260 257 254 254 254 254 255 251 244 242 246 250 254 258 260 262 264 266 268 271 272 273 272 272 272 273 274 275 276 276 271 266 263 261 253 248 247 245
260 258 257 256 255 253 250 247 250 251 250 250 247 243 239 240 243 250 257 261 264 268 272 273 274 275 275 274 273 273 273 271 271 272 272 270 264 258 259 254 249 247 245
255 252 251 250 249 246 245 245 247 249 248 246 246 243 239 235 239 247 254 260 265 271 274 276 278 279 279 279 277 276 275 272 270 269 269 269 264 259 257 251 247 246 244
249 246 245 244 242 241 241 243 245 247 245 246 246 243 240 237 242 249 256 263 268 274 277 279 281 283 283 283 282 280 278 275 271 269 269 269 265 261 253 248 245 243 242
244 242 242 241 240 239 240 241 243 243 243 245 243 244 245 244 249 255 260 268 274 277 279 282 285 287 288 287 285 284 282 278 274 269 268 270 266 257 251 246 244 241 239
245 241 241 241 240 238 238 241 242 240 241 241 245 247 250 254 259 264 271 277 281 283 285 288 290 290 290 289 288 286 284 280 275 272 270 270 265 256 249 244 243 241 237
247 243 241 241 238 238 238 242 242 239 235 236 242 249 253 258 267 275 282 285 287 288 290 292 293 292 289 288 287 286 284 281 277 274 270 269 264 257 249 246 243 240 238
250 250 247 244 242 240 240 237 237 228 231 240 247 253 261 272 281 285 288 290 289 289 291 292 292 292 289 286 284 283 283 279 276 274 271 267 266 256 249 245 243 240 239
256 261 251 248 242 229 225 223 213 214 226 241 255 268 276 283 286 288 288 290 289 288 289 289 290 290 288 284 282 280 279 277 273 271 269 267 264 261 256 247 244 244 240
248 250 241 221 202 191 196 198 202 217 237 257 271 279 283 286 287 286 286 285 285 285 286 287 288 286 285 283 280 278 276 274 271 268 267 265 261 258 255 252 248 245 242
145 156 128 138 158 166 177 194 225 244 261 272 279 283 285 289 289 285 286 284 282 281 281 283 285 285 284 283 281 277 275 273 270 266 264 262 259 258 255 254 251 248 247
124 126 131 140 161 181 206 231 252 267 277 282 288 289 291 292 293 288 288 284 281 279 279 280 283 285 284 283 282 280 277 274 271 267 263 261 259 257 256 254 253 251 251
120 121 129 145 190 237 258 266 275 280 284 288 292 294 296 299 296 293 290 286 283 281 280 281 283 285 285 283 282 280 278 275 272 269 264 261 260 258 257 255 253 253 252
84 87 91 64 342 288 290 290 292 296 299 301 303 303 303 303 300 297 293 289 287 284 284 284 285 285 284 283 281 279 277 275 272 269 265 261 258 258 257 256 254 252 252
70 65 54 40 25 3 337 324 317 313 310 309 309 309 306 305 303 300 297 293 290 288 286 286 285 284 283 283 281 279 276 275 271 268 266 263 259 257 256 255 254 252 251
62 54 45 33 22 8 354 343 334 327 321 316 313 311 310 307 305 302 298 295 291 289 287 287 286 284 283 282 281 278 276 274 271 267 265 264 261 258 257 255 254 252 251
52 45 36 27 17 7 355 344 335 328 322 319 316 313 310 307 304 301 298 295 292 291 289 287 284 282 281 281 280 278 275 273 270 268 266 264 262 260 258 257 256 255 253
49 43 35 25 13 2 352 343 335 330 326 323 320 316 312 309 307 305 302 299 295 292 290 286 283 281 279 278 277 276 274 272 270 268 266 264 263 262 261 259 257 256 254
45 40 30 19 9 1 354 348 342 338 334 331 328 324 321 318 316 313 310 306 301 296 293 290 287 284 282 280 279 277 274 272 270 269 266 263 261 260 260 259 258 257 255
40 33 24 16 9 3 359 355 351 347 345 342 339 336 333 331 328 324 320 316 311 306 301 298 295 293 291 288 285 281 277 273 269 267 265 262 258 256 256 256 255 256 256
34 28 23 17 12 8 3 0 358 357 355 354 353 352 350 348 344 340 336 332 328 323 318 312 309 307 305 303 299 292 285 279 273 268 265 261 256 253 252 250 251 254 257
30 27 23 19 15 10 7 7 8 9 10 10 10 8 6 3 360 356 354 352 350 347 342 336 332 327 324 321 319 314 304 291 280 270 263 258 253 249 246 245 247 251 255
29 27 24 20 17 15 15 16 18 20 21 22 23 23 20 18 16 13 10 9 8 7 4 1 357 355 353 349 347 344 337 327 309 284 269 257 245 239 239 241 245 249 253
Height
5858 5858 5859 5859 5858 5858 5858 5857 5857 5856 5856 5855 5855 5855 5855 5855 5856 5856 5856 5856 5856 5856 5855 5855 5855 5855 5854 5853 5852 5852 5851 5851 5851 5851 5850 5850 5849 5849 5850 5851 5852 5852 5853
5849 5851 5851 5852 5852 5852 5852 5852 5851 5850 5850 5849 5849 5849 5849 5849 5850 5850 5851 5851 5851 5851 5851 5851 5850 5850 5849 5848 5847 5846 5846 5845 5845 5845 5845 5845 5845 5844 5845 5846 5847 5848 5848
5840 5842 5843 5844 5845 5845 5845 5845 5845 5844 5843 5843 5842 5842 5842 5843 5843 5844 5845 5846 5846 5846 5846 5846 5845 5845 5844 5843 5842 5841 5840 5840 5839 5839 5839 5839 5839 5839 5839 5841 5842 5843 5844
5830 5832 5834 5835 5836 5837 5837 5837 5837 5836 5835 5835 5834 5833 5834 5835 5837 5838 5839 5840 5840 5841 5840 5840 5839 5838 5838 5837 5836 5835 5834 5834 5833 5833 5833 5833 5833 5833 5834 5835 5836 5838 5839
5819 5821 5824 5825 5827 5828 5829 5829 5829 5829 5828 5827 5826 5826 5827 5829 5831 5832 5833 5834 5834 5834 5834 5833 5832 5832 5831 5830 5830 5829 5828 5828 5827 5826 5826 5826 5826 5827 5828 5829 5831 5832 5834
5809 5811 5813 5815 5817 5818 5819 5820 5821 5822 5820 5819 5818 5819 5821 5822 5824 5826 5827 5827 5828 5828 5827 5827 5826 5825 5824 5824 5823 5822 5822 5821 5820 5820 5819 5819 5819 5821 5822 5824 5825 5827 5829
5799 5801 5803 5805 5807 5808 5810 5811 5812 5812 5812 5811 5811 5813 5814 5816 5818 5820 5821 5821 5822 5822 5821 5821 5819 5819 5818 5817 5817 5816 5815 5814 5813 5813 5812 5811 5812 5813 5815 5817 5819 5821 5823
5789 5792 5793 5795 5797 5799 5800 5801 5802 5804 5804 5804 5804 5807 5808 5810 5812 5813 5814 5815 5815 5816 5815 5815 5813 5813 5812 5811 5810 5809 5808 5807 5807 5806 5806 5805 5805 5806 5808 5811 5813 5815 5818
5782 5784 5786 5788 5789 5790 5792 5793 5794 5795 5796 5797 5799 5801 5803 5805 5806 5807 5808 5809 5809 5810 5809 5808 5807 5807 5806 5805 5804 5803 5802 5801 5800 5799 5799 5799 5798 5800 5801 5804 5806 5809 5812
5776 5777 5779 5781 5781 5783 5785 5786 5787 5788 5789 5791 5794 5797 5799 5801 5801 5802 5803 5804 5804 5803 5803 5802 5801 5801 5800 5799 5798 5797 5796 5795 5794 5793 5793 5793 5793 5793 5795 5797 5800 5802 5805
5771 5773 5774 5775 5776 5778 5780 5780 5782 5783 5786 5788 5791 5793 5795 5797 5798 5798 5799 5799 5798 5798 5797 5796 5796 5795 5794 5793 5792 5791 5790 5789 5789 5788 5788 5788 5788 5788 5790 5792 5794 5796 5799
5768 5769 5770 5771 5772 5773 5776 5779 5782 5783 5785 5787 5789 5791 5792 5793 5794 5794 5794 5794 5793 5793 5792 5791 5789 5789 5788 5787 5786 5785 5784 5784 5784 5783 5783 5783 5783 5784 5785 5787 5789 5791 5793
5766 5767 5768 5770 5771 5773 5776 5779 5781 5783 5785 5787 5789 5790 5790 5790 5790 5789 5789 5788 5788 5787 5786 5785 5783 5782 5781 5780 5780 5779 5779 5779 5778 5778 5778 5778 5779 5780 5781 5782 5784 5785 5787
5765 5767 5769 5771 5773 5775 5777 5779 5781 5783 5784 5786 5787 5787 5787 5786 5785 5785 5784 5783 5782 5781 5780 5779 5778 5776 5775 5774 5774 5773 5773 5773 5773 5773 5773 5773 5774 5775 5776 5777 5778 5780 5782
5767 5768 5770 5772 5774 5776 5778 5780 5781 5782 5783 5784 5784 5783 5783 5782 5781 5780 5778 5777 5777 5776 5775 5773 5772 5770 5769 5768 5767 5767 5767 5767 5767 5767 5767 5768 5769 5769 5770 5771 5773 5774 5776
5769 5770 5772 5773 5775 5777 5778 5779 5780 5780 5781 5780 5780 5780 5779 5778 5776 5775 5774 5772 5771 5770 5769 5768 5766 5764 5763 5762 5761 5761 5760 5760 5760 5761 5761 5762 5763 5764 5765 5766 5767 5769 5770
5771 5773 5774 5775 5776 5777 5777 5777 5778 5778 5778 5778 5777 5776 5775 5773 5772 5770 5769 5767 5766 5764 5763 5761 5760 5758 5757 5756 5755 5754 5754 5754 5754 5754 5755 5755 5756 5757 5758 5760 5761 5762 5764
5774 5775 5776 5776 5777 5777 5777 5777 5777 5776 5776 5775 5774 5772 5771 5769 5767 5765 5764 5762 5760 5759 5757 5755 5754 5752 5751 5749 5748 5748 5748 5747 5747 5748 5748 5749 5750 5751 5752 5753 5755 5756 5758
5777 5778 5778 5778 5777 5777 5777 5776 5775 5775 5773 5772 5771 5769 5767 5765 5763 5761 5759 5757 5755 5753 5751 5749 5748 5746 5745 5743 5742 5742 5741 5741 5741 5741 5742 5742 5743 5744 5745 5747 5748 5749 5751
5780 5780 5780 5779 5778 5778 5777 5776 5775 5773 5771 5769 5767 5765 5763 5760 5758 5756 5754 5751 5749 5747 5745 5743 5742 5740 5739 5738 5737 5736 5735 5735 5735 5735 5735 5736 5736 5737 5738 5740 5741 5743 5744
5783 5782 5781 5780 5779 5778 5776 5775 5773 5771 5768 5766 5763 5761 5758 5756 5753 5750 5748 5745 5743 5741 5739 5737 5736 5734 5733 5732 5731 5730 5729 5728 5728 5728 5728 5729 5730 5731 5732 5733 5735 5736 5737
5784 5783 5782 5780 5779 5777 5775 5772 5770 5767 5765 5762 5759 5757 5754 5750 5747 5744 5742 5739 5737 5735 5733 5731 5730 5728 5727 5725 5724 5723 5722 5721 5721 5721 5721 5722 5722 5724 5725 5726 5728 5729 5731
5786 5784 5782 5780 5778 5775 5773 5770 5768 5765 5762 5759 5756 5753 5750 5746 5743 5740 5737 5735 5732 5730 5728 5726 5724 5723 5721 5719 5717 5716 5714 5713 5712 5712 5713 5713 5714 5716 5717 5719 5721 5722 5724
5788 5786 5783 5781 5778 5775 5773 5770 5767 5764 5761 5758 5754 5751 5747 5744 5741 5738 5735 5732 5729 5726 5724 5722 5720 5718 5716 5714 5711 5708 5706 5704 5704 5703 5704 5705 5706 5708 5710 5712 5714 5716 5718
5789 5787 5785 5782 5779 5776 5773 5770 5767 5764 5761 5758 5754 5751 5748 5744 5741 5737 5734 5730 5727 5724 5722 5719 5717 5715 5712 5709 5706 5703 5700 5698 5696 5696 5696 5697 5698 5700 5703 5705 5708 5710 5712
5791 5789 5787 5784 5781 5778 5775 5772 5769 5766 5763 5760 5756 5753 5749 5746 5742 5738 5734 5730 5727 5724 5721 5718 5715 5712 5710 5706 5703 5700 5697 5694 5693 5692 5691 5692 5693 5696 5698 5701 5703 5705 5707